[[{"header":{"parameterUnit":"m.s-1","parameterCategory":1,"la1":30.2991,"la2":30.254,"lo1":-89.0895,"lo2":-89.0444,"dy":0.0017,"dx":0.0017,"nx":28,"ny":28,"refTime":"2025-08-22T09:00:00:Z","depth":0,"parameterNumber":2,"parameterNumberName":"U-component_of_WINDS"},"data":[0,0,0,0,0,0,0,0,0,0,0,0,0,0,0,0,0,0,0,0,0,0,0,0,0,0,0,0,0,0,0,0,0,0,0,0,0,0,0,0,0,0,0,0,0,0,0,0,0,0,0,0,0,0,0,0,0,0,2.4125,2.4125,0,2.4133,2.4133,2.4133,2.4072,2.407,2.4068,2.4067,2.4076,2.4078,2.408,0,0,0,0,0,0,0,0,0,0,0,0,0,2.4055,2.4057,2.4125,2.4125,2.4125,2.4133,2.4133,2.4133,2.4072,2.407,2.4068,2.4066,2.4075,2.4078,2.408,0,0,0,0,0,0,0,0,0,0,0,0,0,2.4077,2.4057,2.4125,2.4095,2.4093,2.4133,2.4133,2.4133,2.4073,2.407,2.4067,2.4065,2.4075,2.4077,2.408,2.4149,0,0,2.4089,2.409,0,0,0,0,0,0,0,0,2.4075,2.4079,2.41,2.4097,2.4095,2.4099,2.4112,2.4139,2.4073,2.408,2.4067,2.4064,2.4086,2.4087,2.4095,2.415,2.415,2.4089,2.4091,2.4092,2.4092,0,0,0,0,0,0,0,2.4074,2.4078,2.4128,2.41,2.4097,2.4081,2.4082,2.4117,2.4097,2.4079,2.4075,2.4077,2.4084,2.4092,2.4094,2.415,2.4089,2.4091,2.4093,2.4094,2.4259,2.4262,0,0,0,0,0,0,2.4076,2.4078,2.4128,2.4128,2.4078,2.4085,2.4085,2.41,2.4097,2.4094,2.4079,2.4074,2.4089,2.4091,2.4095,2.4173,2.4092,2.4094,2.4096,2.4256,2.426,2.4263,0,0,0,0,0,0,2.4075,2.4082,2.4127,2.4102,2.4106,2.4089,2.4106,2.4102,2.411,2.4096,2.4093,2.4091,2.4087,2.4091,2.4135,2.4172,2.4096,2.4098,2.4253,2.4257,2.4261,2.4332,0,0,0,0,0,0,2.4073,2.4081,2.4108,2.4103,2.4108,2.4169,2.4108,2.4104,2.4115,2.4108,2.4107,2.4104,2.4085,2.4131,2.4138,2.4175,2.41,2.425,2.4255,2.426,2.4326,2.4338,2.4348,0,0,0,0,0,2.4071,2.4128,2.411,2.4116,2.4141,2.4171,2.4174,2.415,2.4118,2.4144,2.4135,2.4104,2.4168,2.4137,2.4143,2.4182,2.4247,2.4253,2.4259,2.4321,2.4335,2.4347,0,0,0,0,0,0,2.4139,2.4127,2.4106,2.4164,2.4169,2.416,2.4193,2.4167,2.4182,2.4175,2.4145,2.4145,2.4195,2.4193,2.4158,2.4247,2.4202,2.4209,2.4246,2.426,2.427,2.4269,2.4103,0,0,0,0,0,2.4161,2.4186,2.4174,2.4226,2.423,2.4211,2.4223,2.4204,2.4209,2.4211,2.4205,2.421,2.4231,2.4245,2.4264,2.4326,2.4323,2.4355,2.4366,2.4375,2.4382,2.4412,2.4425,2.4283,2.4282,2.4282,0,0,2.4206,2.4202,2.4221,2.424,2.4241,2.4267,2.4213,2.4244,2.4263,2.4215,2.4256,2.4253,2.4256,2.4309,2.4332,2.4309,2.4421,2.4383,2.439,2.4392,2.4419,2.4433,2.4445,2.4287,2.4286,2.4285,0,0,2.4301,2.4302,2.4343,2.4346,2.4348,2.4335,2.4345,2.4341,2.4336,2.4376,2.434,2.4363,2.44,2.4403,2.441,2.4504,2.4475,2.4511,2.4567,2.4597,2.4608,2.4617,2.4649,2.4661,2.4518,2.4518,2.4518,0,2.4357,2.4395,2.4368,2.44,2.4409,2.4366,2.4407,2.4411,2.442,2.4427,2.4401,2.4445,2.4445,2.4496,2.4519,2.4527,2.4536,2.451,2.4608,2.4618,2.4626,2.4656,2.4668,2.4522,2.4522,2.4521,2.4521,0,2.4462,2.4489,2.4522,2.453,2.4543,2.458,2.4558,2.4574,2.4554,2.4543,2.4584,2.4582,2.4598,2.4609,2.4591,2.4658,2.4643,2.4613,2.4567,2.4645,2.4672,2.4683,2.4528,2.4526,2.4525,2.4524,0,0,2.4601,2.4592,2.4604,2.4606,2.4605,2.4625,2.466,2.4675,2.4688,2.4695,2.4722,2.4753,2.4725,2.4733,2.4714,2.474,2.4812,2.4707,2.4706,2.4725,2.4883,2.4904,2.4917,2.4793,2.4795,2.4797,2.4882,0,2.4691,2.4749,2.4725,2.4784,2.4807,2.4766,2.4795,2.4797,2.4788,2.4806,2.4796,2.4817,2.478,2.4784,2.4808,2.4798,2.4843,2.4792,2.4817,2.4818,2.4815,2.4932,2.4955,2.5035,2.4892,2.4894,2.4895,0,2.4805,2.4815,2.4877,2.4869,2.4877,2.4904,2.4915,2.4933,2.4934,2.4925,2.4933,2.4907,2.4939,2.4894,2.4937,2.4903,2.4911,2.4908,2.491,2.4911,2.486,2.4933,2.506,2.5071,2.4912,2.4911,2.491,0,2.4898,2.4927,2.4966,2.497,2.4962,2.4981,2.4979,2.4978,2.4987,2.4997,2.5002,2.5016,2.5023,2.5034,2.5012,2.4982,2.5057,2.5011,2.505,2.505,2.5067,2.5066,2.5194,2.5076,2.5075,2.5075,2.5075,0,2.5001,2.5039,2.5007,2.5031,2.5073,2.5044,2.5086,2.5079,2.5078,2.5099,2.5066,2.5087,2.5058,2.5076,2.506,2.5096,2.51,2.5093,2.5088,2.5095,2.5096,2.51,2.5093,2.5078,2.5078,2.5077,2.5076,0,2.5111,2.5091,2.5131,2.512,2.5117,2.5148,2.5138,2.516,2.5147,2.5175,2.518,2.5161,2.518,2.516,2.5178,2.5167,2.5216,2.5203,2.5215,2.5211,2.525,2.5246,2.5384,2.54,2.5273,2.5274,2.5275,0,2.5177,2.5205,2.5196,2.5207,2.5207,2.5226,2.5235,2.5208,2.5219,2.5221,2.5242,2.5258,2.5269,2.5302,2.5289,2.5303,2.5289,2.5337,2.5291,2.5296,2.5287,2.5285,2.5287,2.5346,2.5347,2.5349,2.535,0,2.5296,2.5284,2.5298,2.5308,2.5319,2.5326,2.5331,2.5342,2.5314,2.5327,2.5346,2.5355,2.5372,2.5388,2.5397,2.5394,2.5367,2.5364,2.5373,2.538,2.5385,2.5381,2.5238,2.5361,2.536,2.5359,2.5358,2.5358,2.5385,2.5407,2.5403,2.5419,2.5419,2.5423,2.5442,2.5431,2.5445,2.5456,2.544,2.5462,2.5461,2.547,2.547,2.5487,2.5467,2.5481,2.5484,2.5488,2.5492,2.5383,2.5489,2.5489,2.5488,2.5488,2.5488,0,2.55,2.5495,2.551,2.5516,2.5528,2.55,2.5503,2.5515,2.5535,2.5535,2.5546,2.5566,2.5581,2.5569,2.5581,2.5596,2.5584,2.56,2.5598,2.5597,2.5511,2.5501,2.561,2.561,2.561,2.561,2.561,2.561,2.5562,2.5597,2.5584,2.5618,2.5612,2.5633,2.5636,2.564,2.5639,2.5663,2.5674,2.5666,2.5661,2.5672,2.5683,2.5679,2.5685,2.5705,2.5697,2.5616,2.5604,2.5592,2.5582,2.5707,2.5707,2.5781,2.5782,2.5782]},{"header":{"parameterUnit":"m.s-1","parameterCategory":1,"la1":30.2991,"la2":30.254,"lo1":-89.0895,"lo2":-89.0444,"dy":0.0017,"dx":0.0017,"nx":28,"ny":28,"refTime":"2025-08-22T09:00:00:Z","depth":0,"parameterNumber":3,"parameterNumberName":"V-component_of_WINDS"},"data":[0,0,0,0,0,0,0,0,0,0,0,0,0,0,0,0,0,0,0,0,0,0,0,0,0,0,0,0,0,0,0,0,0,0,0,0,0,0,0,0,0,0,0,0,0,0,0,0,0,0,0,0,0,0,0,0,0,0,0.7143,0.7145,0,0.7312,0.7314,0.7316,0.7375,0.7375,0.7374,0.7374,0.7551,0.7557,0.7562,0,0,0,0,0,0,0,0,0,0,0,0,0,0.6872,0.6877,0.7143,0.7145,0.7147,0.7312,0.7314,0.7317,0.7376,0.7375,0.7374,0.7373,0.755,0.7556,0.7562,0,0,0,0,0,0,0,0,0,0,0,0,0,0.701,0.6878,0.7143,0.7196,0.7203,0.7312,0.7315,0.7317,0.7376,0.7375,0.7374,0.7373,0.7548,0.7555,0.7563,0.7633,0,0,0.7588,0.7591,0,0,0,0,0,0,0,0,0.7002,0.702,0.7186,0.7193,0.72,0.7322,0.7284,0.7423,0.7376,0.731,0.7374,0.7372,0.7476,0.749,0.7524,0.7641,0.7648,0.7589,0.7593,0.7597,0.7599,0,0,0,0,0,0,0,0.6993,0.7013,0.721,0.7189,0.7197,0.7212,0.7231,0.7311,0.7397,0.7316,0.7321,0.734,0.748,0.7516,0.7529,0.7651,0.7588,0.7595,0.76,0.7603,0.783,0.7831,0,0,0,0,0,0,0.6974,0.7005,0.7205,0.7215,0.7097,0.7218,0.7239,0.7284,0.7396,0.7412,0.734,0.7342,0.7503,0.7519,0.7535,0.7622,0.7597,0.7604,0.7609,0.7829,0.783,0.7831,0,0,0,0,0,0,0.6968,0.6991,0.7198,0.7111,0.7139,0.7224,0.7274,0.7288,0.7324,0.7414,0.743,0.7361,0.7503,0.7524,0.7607,0.7629,0.7608,0.7615,0.7827,0.7829,0.7831,0.7796,0,0,0,0,0,0,0.696,0.6988,0.7016,0.7111,0.7143,0.7266,0.7275,0.7292,0.7337,0.7341,0.7439,0.7454,0.7504,0.7594,0.7615,0.7639,0.7621,0.7826,0.7828,0.783,0.7796,0.7797,0.7797,0,0,0,0,0,0.695,0.7001,0.7017,0.7041,0.7179,0.7268,0.7286,0.7341,0.7339,0.7367,0.7424,0.7451,0.7622,0.7602,0.7626,0.7653,0.7824,0.7827,0.783,0.7796,0.7797,0.7797,0,0,0,0,0,0,0.6908,0.7015,0.7033,0.7117,0.7182,0.7277,0.7315,0.7341,0.741,0.741,0.7476,0.7498,0.7575,0.7623,0.7598,0.7724,0.7725,0.7732,0.7691,0.7693,0.7693,0.7681,0.7628,0,0,0,0,0,0.6908,0.6971,0.7061,0.7126,0.7157,0.723,0.7271,0.7307,0.7378,0.7407,0.747,0.7539,0.7608,0.7653,0.7722,0.7802,0.7824,0.7832,0.7833,0.7833,0.7839,0.7882,0.7887,0.784,0.784,0.784,0,0,0.6911,0.6976,0.7012,0.7119,0.7174,0.7237,0.7253,0.732,0.7368,0.7418,0.7499,0.7547,0.7628,0.7709,0.7748,0.7751,0.7856,0.7837,0.7836,0.7842,0.7886,0.789,0.7894,0.7842,0.7842,0.7841,0,0,0.6946,0.7002,0.7061,0.7115,0.7197,0.7244,0.7257,0.7348,0.7381,0.7463,0.7501,0.7558,0.7677,0.7732,0.7776,0.7827,0.7854,0.7848,0.7852,0.7894,0.7897,0.7901,0.7918,0.7923,0.7853,0.7853,0.7853,0,0.6939,0.7034,0.7089,0.7152,0.7198,0.7242,0.7302,0.7352,0.7453,0.7483,0.7484,0.7631,0.7689,0.7783,0.7794,0.7829,0.7846,0.7838,0.7892,0.7896,0.79,0.7917,0.7924,0.7852,0.7852,0.7852,0.7852,0,0.702,0.7086,0.7124,0.7217,0.7266,0.7328,0.7391,0.7435,0.7465,0.7512,0.7593,0.7664,0.7746,0.7771,0.7803,0.7868,0.7867,0.7879,0.7881,0.7903,0.792,0.7927,0.785,0.785,0.7851,0.7851,0,0,0.7038,0.7157,0.717,0.7211,0.7303,0.7355,0.7417,0.7496,0.7531,0.7598,0.7652,0.7748,0.7759,0.7808,0.7846,0.7882,0.7916,0.789,0.7893,0.7892,0.799,0.798,0.7987,0.7933,0.7934,0.7936,0.7982,0,0.7085,0.7198,0.7246,0.7337,0.7397,0.7438,0.7492,0.7554,0.7598,0.7656,0.7706,0.7772,0.7782,0.7812,0.7849,0.7904,0.7936,0.7901,0.7984,0.7986,0.7962,0.7996,0.7987,0.8028,0.799,0.7991,0.7992,0,0.7156,0.722,0.7316,0.7396,0.7423,0.7471,0.7545,0.76,0.767,0.7699,0.7751,0.7787,0.7853,0.7849,0.7941,0.7915,0.7952,0.7983,0.7986,0.7997,0.7991,0.8007,0.8043,0.8048,0.8003,0.8002,0.8001,0,0.7158,0.7268,0.7339,0.7373,0.747,0.7502,0.7544,0.7612,0.7655,0.772,0.7748,0.782,0.786,0.7914,0.7967,0.796,0.8053,0.8054,0.808,0.8078,0.8099,0.8097,0.814,0.8121,0.8121,0.8121,0.8121,0,0.7206,0.7263,0.734,0.7384,0.7448,0.7503,0.7565,0.761,0.7669,0.7722,0.7762,0.7811,0.7878,0.7935,0.7977,0.8045,0.8063,0.8089,0.8099,0.8085,0.8082,0.8111,0.811,0.8123,0.8123,0.8122,0.8122,0,0.722,0.7275,0.7354,0.7437,0.7459,0.7502,0.7573,0.7617,0.7661,0.7727,0.7746,0.7816,0.7885,0.7942,0.8034,0.8061,0.8132,0.8145,0.8108,0.8114,0.8135,0.8132,0.82,0.8211,0.8183,0.8184,0.8184,0,0.7247,0.7291,0.7378,0.7415,0.7455,0.7515,0.7557,0.7612,0.7655,0.7735,0.7769,0.7839,0.7899,0.8007,0.8066,0.8135,0.815,0.8168,0.8161,0.8144,0.8149,0.8146,0.815,0.8169,0.8169,0.8169,0.8169,0,0.7289,0.7313,0.7372,0.744,0.7489,0.7546,0.7604,0.7632,0.7697,0.7743,0.7812,0.7858,0.7948,0.8018,0.8092,0.8136,0.8163,0.817,0.818,0.8167,0.8143,0.8155,0.8109,0.8169,0.8169,0.8169,0.8169,0.8169,0.7311,0.7351,0.7416,0.748,0.7529,0.758,0.7624,0.7672,0.7731,0.7808,0.7836,0.7906,0.7972,0.8075,0.8117,0.8173,0.8177,0.8191,0.8195,0.8197,0.8194,0.8133,0.8187,0.8187,0.8187,0.8187,0.8187,0,0.7355,0.7398,0.7456,0.7533,0.7583,0.7601,0.7665,0.7706,0.7766,0.7825,0.7881,0.7959,0.8026,0.8088,0.8158,0.819,0.8204,0.8207,0.8205,0.8214,0.8188,0.8172,0.8194,0.8194,0.8194,0.8194,0.8194,0.8194,0.7383,0.7451,0.7481,0.7572,0.7616,0.7683,0.7718,0.7765,0.7812,0.7896,0.7951,0.799,0.805,0.8123,0.8184,0.8201,0.8225,0.8224,0.8243,0.8218,0.8217,0.8215,0.8201,0.8228,0.8228,0.8265,0.8266,0.8266]}]]